Williamtown Air Force Base, Australia

10:05 PM AEST on August 26, 2016 (GMT +1000)
Williamtown Military

Weather History for YWLM - August, 2013

Change the Weather History Date:

Monday, August 5, 2013

  Actual Average Record
Temperature  
Mean Temperature 54 °F -  
Max Temperature 66 °F - - ()
Min Temperature 41 °F - - ()
Degree Days  
Heating Degree Days 12    
Growing Degree Days 4 (Base 50)    
Moisture  
Dew Point 36 °F    
Average Humidity 49    
Maximum Humidity 81    
Minimum Humidity 18    
Precipitation  
Precipitation 0.00 in - - ()
Sea Level Pressure  
Sea Level Pressure 30.03 in    
Wind  
Wind Speed 11 mph ()    
Max Wind Speed 24 mph    
Max Gust Speed 33 mph    
Visibility 9.6 miles    
Events      
T = Trace of Precipitation, MM = Missing Value Source: Averaged Metar Reports

Daily Weather History Graph

Daily Weather History Graph

Search for Another Location

Airport or City:

Trip Planner

Search our weather history database for the weather conditions in past years. The results will help you decide how hot, cold, wet, or windy it might be!

Date:

Astronomy

Aug. 05, 2013 Rise Set
Actual Time 6:39 AM AEST 5:17 PM AEST
Civil Twilight 6:14 AM AEST 5:43 PM AEST
Nautical Twilight 5:44 AM AEST 6:13 PM AEST
Astronomical Twilight 5:15 AM AEST 6:42 PM AEST
Moon 5:05 AM AEST (8/5) 3:53 PM AEST (8/5)
Length of Visible Light 11h 29m
Length of Day
10h 37m
Waning Crescent, 3% of the Moon is Illuminated
Aug 5
Waning Crescent
Aug 7
New
Aug 14
First Quarter
Aug 21
Full
Aug 28
Last Quarter

Hourly Weather History & Observations

Time (AEST) Temp. Windchill Dew Point Humidity Pressure Visibility Wind Dir Wind Speed Gust Speed Precip Events Conditions
12:00 AM 49 °F - 35 °F 48% 30.06 in - WNW 10.4 mph - -  
12:00 AM 50.0 °F - 35.6 °F 58% 30.04 in 6.2 mi WNW 10.4 mph - N/A   Unknown
12:30 AM 50.0 °F - 35.6 °F 58% 30.04 in 6.2 mi WNW 10.4 mph - N/A   Unknown
1:00 AM 49 °F - 36 °F 51% 30.05 in - WNW 11.5 mph - -  
1:00 AM 50.0 °F - 35.6 °F 58% 30.04 in 6.2 mi WNW 11.5 mph - N/A   Unknown
1:30 AM 48.2 °F - 37.4 °F 66% 30.04 in 6.2 mi NW 9.2 mph - N/A   Unknown
2:00 AM 46.4 °F 42.9 °F 37.4 °F 71% 30.04 in 6.2 mi NW 6.9 mph - N/A   Unknown
2:30 AM 46.4 °F 43.5 °F 37.4 °F 71% 30.04 in 6.2 mi WNW 5.8 mph - N/A   Unknown
3:00 AM 43 °F - 37 °F 72% 30.05 in - West 5.8 mph - -  
3:00 AM 42.8 °F 39.3 °F 37.4 °F 81% 30.04 in 6.2 mi West 5.8 mph - N/A   Unknown
3:30 AM 44.6 °F 41.4 °F 37.4 °F 76% 30.04 in - West 5.8 mph - N/A   Unknown
4:00 AM 43 °F - 36 °F 70% 30.06 in - West 6.9 mph - -  
4:00 AM 42.8 °F 38.6 °F 37.4 °F 81% 30.04 in - West 6.9 mph - N/A   Unknown
4:30 AM 42.8 °F 38.0 °F 37.4 °F 81% 30.04 in - WNW 8.1 mph - N/A   Unknown
5:00 AM 42.8 °F 38.0 °F 37.4 °F 81% 30.06 in - WNW 8.1 mph - N/A   Unknown
5:30 AM 44.6 °F 39.2 °F 37.4 °F 76% 30.06 in - WNW 10.4 mph - N/A   Unknown
6:00 AM 43 °F - 36 °F 70% 30.08 in 19 mi NNW 5.8 mph - -   Partly Cloudy
6:00 AM 42.8 °F 39.3 °F 37.4 °F 81% 30.06 in - NNW 5.8 mph - N/A   Clear
6:30 AM 42.8 °F 38.0 °F 37.4 °F 81% 30.06 in - NW 8.1 mph - N/A   Clear
7:00 AM 42 °F - 36 °F 73% 30.09 in - WNW 8.1 mph - -  
7:00 AM 42.8 °F 38.0 °F 35.6 °F 76% 30.06 in - WNW 8.1 mph - N/A   Clear
7:30 AM 44.6 °F 40.2 °F 39.2 °F 81% 30.09 in - WNW 8.1 mph - N/A   Clear
8:00 AM 48.2 °F - 39.2 °F 71% 30.09 in - WNW 10.4 mph - N/A   Clear
8:30 AM 51.8 °F - 37.4 °F 58% 30.09 in - WNW 12.7 mph - N/A   Clear
9:00 AM 54 °F - 38 °F 42% 30.10 in 19 mi WNW 13.8 mph - -   Partly Cloudy
9:00 AM 53.6 °F - 37.4 °F 54% 30.09 in - WNW 13.8 mph - N/A   Clear
9:30 AM 59.0 °F - 37.4 °F 45% 30.06 in - WNW 16.1 mph - N/A   Clear
10:00 AM 60 °F - 36 °F 28% 30.09 in - WNW 18.4 mph - -  
10:00 AM 59.0 °F - 35.6 °F 42% 30.06 in - WNW 18.4 mph - N/A   Clear
10:34 AM 62.6 °F - 37.4 °F 39% 30.06 in - WNW 18.4 mph 29.9 mph N/A   Clear
11:00 AM 62.6 °F - 35.6 °F 37% 30.06 in - WNW 19.6 mph - N/A   Clear
11:30 AM 62.6 °F - 33.8 °F 34% 30.04 in - WNW 23.0 mph - N/A   Clear
12:00 PM 64 °F - 34 °F 21% 30.04 in 19 mi WNW 21.9 mph - -   Partly Cloudy
12:00 PM 64.4 °F - 33.8 °F 32% 30.04 in - WNW 21.9 mph - N/A   Clear
12:13 PM 64.4 °F - 35.6 °F 34% 30.01 in - WNW 18.4 mph 29.9 mph N/A   Clear
12:30 PM 64.4 °F - 33.8 °F 32% 30.01 in - WNW 21.9 mph - N/A   Clear
1:00 PM 65 °F - 33 °F 19% 30.01 in - West 21.9 mph - -  
1:00 PM 64.4 °F - 32.0 °F 30% 30.01 in - West 21.9 mph - N/A   Clear
1:13 PM 66.2 °F - 33.8 °F 30% 29.98 in - West 19.6 mph 31.1 mph N/A   Clear
1:30 PM 66.2 °F - 32.0 °F 28% 29.98 in - WNW 23.0 mph - N/A   Clear
2:00 PM 66.2 °F - 32.0 °F 28% 29.98 in - WNW 24.2 mph - N/A   Clear
2:13 PM 66.2 °F - 32.0 °F 28% 29.98 in - NW 24.2 mph - N/A   Clear
2:16 PM 66.2 °F - 32.0 °F 28% 29.98 in - WNW 17.3 mph - N/A   Clear
2:30 PM 66.2 °F - 32.0 °F 28% 29.98 in - WNW 21.9 mph - N/A   Clear
2:55 PM 66.2 °F - 30.2 °F 26% 29.98 in 6.2 mi WNW 19.6 mph 31.1 mph N/A   Unknown
3:00 PM 66 °F - 32 °F 18% 29.98 in 19 mi WNW 21.9 mph - -   Partly Cloudy
3:00 PM 66.2 °F - 32.0 °F 28% 29.98 in - WNW 21.9 mph - N/A   Clear
3:05 PM 66.2 °F - 32.0 °F 28% 29.98 in - WNW 21.9 mph 33.4 mph N/A   Clear
3:30 PM 66.2 °F - 32.0 °F 28% 29.95 in - WNW 18.4 mph - N/A   Clear
4:00 PM 65 °F - 33 °F 20% 29.98 in - WNW 13.8 mph - -  
4:00 PM 64.4 °F - 33.8 °F 32% 29.98 in - WNW 13.8 mph - N/A   Clear
4:30 PM 64.4 °F - 33.8 °F 32% 29.98 in - WNW 17.3 mph - N/A   Clear
5:00 PM 62.6 °F - 33.8 °F 34% 29.98 in - NW 11.5 mph - N/A   Clear
5:30 PM 60.8 °F - 35.6 °F 39% 29.98 in - NW 11.5 mph - N/A   Clear
6:00 PM 58 °F - 36 °F 32% 30.00 in - NNW 9.2 mph - -  
6:00 PM 59.0 °F - 35.6 °F 42% 29.98 in - NNW 9.2 mph - N/A   Clear
6:30 PM 57.2 °F - 37.4 °F 48% 30.01 in - NNW 8.1 mph - N/A   Clear
7:00 PM 58 °F - 36 °F 31% 30.02 in - NNW 8.1 mph - -  
7:00 PM 57.2 °F - 35.6 °F 44% 30.01 in - NNW 8.1 mph - N/A   Clear
7:30 PM 57.2 °F - 35.6 °F 44% 30.01 in - NW 9.2 mph - N/A   Clear
8:00 PM 55.4 °F - 37.4 °F 51% 30.01 in - NNW 5.8 mph - N/A   Clear
8:30 PM 53.6 °F - 37.4 °F 54% 30.01 in - WNW 10.4 mph - N/A   Unknown
9:00 PM 53 °F - 38 °F 46% 30.04 in - WNW 8.1 mph - -  
9:00 PM 51.8 °F - 37.4 °F 58% 30.04 in - WNW 8.1 mph - N/A   Unknown
9:30 PM 50.0 °F - 39.2 °F 66% 30.01 in - WNW 9.2 mph - N/A   Unknown
10:00 PM 55 °F - 37 °F 39% 30.03 in - WNW 15.0 mph - -  
10:00 PM 55.4 °F - 37.4 °F 51% 30.01 in - WNW 15.0 mph - N/A   Unknown
10:30 PM 53.6 °F - 37.4 °F 54% 30.04 in 6.2 mi WNW 10.4 mph - N/A   Unknown
11:00 PM 51.8 °F - 37.4 °F 58% 30.04 in 6.2 mi West 9.2 mph - N/A   Unknown
11:30 PM 50.0 °F - 37.4 °F 62% 30.04 in 6.2 mi WNW 9.2 mph - N/A   Unknown